GEFSNGP_con_cape1000_234.txt.gz
Probability
0 0 0 0 0 0 0 0 0 6 10 16 29 42 42 45 61 65 65 65 68 68 68 81 77 77 68 65 61 61 65 68 68 65 58 58 58 58 61 65 42 48 39 45
0 0 0 0 0 0 0 0 3 3 16 26 35 39 45 55 61 65 74 71 65 65 65 65 68 65 58 65 68 65 65 68 65 61 61 61 58 55 55 52 45 45 42 39
0 0 0 0 0 0 3 6 3 6 23 32 39 42 52 55 65 68 61 58 65 65 65 68 68 65 65 58 58 65 61 58 58 58 61 61 58 55 52 48 48 48 42 45
0 3 0 3 6 10 13 16 23 32 35 35 39 45 52 58 65 55 55 58 58 58 61 65 68 65 65 58 55 61 58 48 48 55 61 61 61 58 55 58 55 52 48 42
0 0 0 3 10 13 23 19 29 32 39 35 39 42 45 45 42 52 52 52 55 55 52 55 58 58 61 61 52 55 48 45 48 52 55 58 55 58 58 55 52 52 52 45
0 0 0 3 6 13 23 23 39 42 45 39 39 39 42 45 42 48 48 52 52 55 52 52 48 48 55 55 55 48 48 52 48 52 55 52 55 52 52 48 48 48 48 45
0 0 0 6 19 19 10 32 45 42 42 45 52 55 48 39 42 48 48 52 52 55 55 55 52 52 55 48 48 52 48 48 48 45 42 45 45 52 55 45 48 48 35 39
0 0 0 16 23 29 48 48 48 52 52 52 45 42 39 29 35 42 42 42 52 52 55 55 55 55 52 52 48 52 48 45 45 39 42 39 42 42 42 35 39 39 32 29
10 10 23 19 26 35 42 45 45 48 48 42 45 35 35 35 35 39 42 42 42 42 45 48 52 52 48 45 45 42 42 39 35 35 32 32 32 29 32 29 35 32 26 19
19 16 16 23 23 26 35 45 48 45 35 35 35 29 23 19 29 29 32 35 39 42 39 42 39 39 42 35 35 35 32 35 32 29 23 19 23 16 23 26 29 29 23 16
23 16 23 32 32 35 35 35 32 32 29 26 19 19 13 19 19 29 23 26 29 39 35 32 29 29 29 26 32 35 32 29 32 32 23 19 19 16 16 26 19 26 26 16
16 19 32 26 26 23 29 29 19 23 23 19 19 19 16 16 19 19 19 23 23 26 32 29 26 26 29 29 29 32 29 29 29 26 26 16 13 10 6 10 6 0 3 3
23 13 23 19 16 19 16 16 19 19 16 16 19 19 16 16 13 16 16 13 19 23 29 23 23 23 23 26 26 26 29 29 29 26 23 16 13 13 6 6 0 0 0 0
13 10 13 13 10 10 10 10 10 13 13 10 10 16 19 13 6 13 16 16 16 16 19 19 23 23 23 23 29 26 26 26 29 32 16 16 16 16 10 10 16 13 3 0
10 10 10 6 6 6 6 10 10 6 10 10 13 10 10 10 10 16 16 16 16 16 13 19 19 19 23 23 26 23 26 26 26 23 19 13 16 19 16 16 16 19 16 3
3 3 6 6 6 3 6 6 6 6 6 6 10 10 10 10 3 13 13 13 13 16 16 16 19 19 23 26 26 19 16 16 23 23 23 16 13 16 16 13 16 19 23 16
3 6 6 3 3 3 3 3 6 3 3 3 6 6 6 10 10 10 10 13 13 16 16 16 16 19 23 16 19 16 13 10 6 16 16 13 13 13 16 16 16 16 19 19
3 3 0 3 3 3 3 3 3 3 3 3 3 3 6 6 10 10 13 13 13 13 16 16 19 19 16 13 13 6 6 6 6 6 10 6 6 10 16 16 19 19 23 13
3 3 0 0 3 3 0 0 3 3 3 3 3 3 3 6 3 6 13 13 13 16 10 13 0 16 10 6 3 10 6 6 6 6 10 6 6 10 10 16 19 19 16 10
3 0 0 0 3 3 0 0 3 3 3 3 3 3 3 3 3 3 6 3 6 3 6 3 3 13 6 3 3 6 6 6 6 6 6 3 13 13 13 16 13 16 16 10
0 0 0 0 0 0 0 0 3 3 3 3 3 3 3 3 3 3 3 3 3 3 0 0 0 6 6 3 3 3 6 6 6 10 10 3 10 13 16 16 13 16 13 6
0 0 0 0 0 0 0 0 3 3 3 3 3 3 3 3 3 3 3 3 3 0 0 0 3 3 3 0 0 6 6 6 6 10 10 6 10 16 16 16 16 16 6 6
0 0 0 0 0 0 0 0 3 3 3 3 3 3 3 3 3 3 3 3 0 0 0 3 0 0 0 3 3 6 6 6 6 6 10 13 13 10 13 10 10 6 6 6
0 0 0 0 0 3 3 0 3 3 3 3 3 3 3 3 3 0 0 0 0 0 0 0 0 0 0 6 3 6 6 6 6 10 13 10 10 13 10 10 6 6 6 6
0 0 0 0 0 3 3 0 0 3 3 3 3 3 3 3 0 0 3 3 0 0 3 3 0 0 0 3 0 3 3 6 6 13 13 16 16 10 6 6 6 6 6 6
3 0 0 0 0 0 0 0 0 3 3 3 3 3 3 3 3 3 3 3 0 0 0 3 3 0 3 3 3 3 3 3 10 13 13 6 3 3 3 6 3 3 3 3
0 0 0 0 0 0 0 0 0 3 3 3 3 3 3 3 3 0 0 0 0 0 0 0 0 0 0 3 3 6 6 6 6 6 3 3 3 3 3 3 3 3 3 3

GEFSNGP_con_cape1000_240.txt.gz
Probability
0 0 0 0 0 0 0 0 0 10 10 23 23 32 29 45 48 52 61 68 71 74 77 84 77 74 74 74 74 71 71 71 68 68 77 74 68 68 71 71 65 68 65 61
0 0 0 0 0 0 0 0 0 10 10 26 32 39 45 48 55 61 58 61 68 71 74 74 81 77 74 71 77 81 74 74 71 68 65 68 68 68 68 68 65 65 68 65
0 0 0 0 0 0 0 0 6 10 23 29 32 48 52 65 68 65 65 68 68 71 74 74 71 74 74 71 71 74 74 71 68 68 65 65 61 68 71 71 71 71 68 61
0 3 6 3 0 0 3 0 6 13 23 29 35 52 58 68 71 71 65 65 65 61 61 65 65 68 68 65 61 65 68 65 65 65 65 65 61 61 68 71 71 71 68 58
0 0 3 0 0 3 3 6 10 10 35 39 48 48 45 45 65 65 61 61 61 55 55 58 65 68 65 65 65 61 61 68 61 61 61 65 58 61 65 68 68 61 65 61
0 3 0 3 0 3 3 13 26 32 39 55 48 48 48 45 45 45 52 52 52 52 48 52 52 55 58 61 61 61 58 61 68 71 65 61 58 65 68 68 65 61 58 65
3 3 6 6 0 3 10 42 45 42 48 55 52 48 52 45 48 48 48 52 52 52 52 52 52 52 52 58 58 55 58 58 65 74 74 68 68 55 61 61 55 58 55 48
3 3 10 16 16 32 65 58 45 45 55 55 55 42 42 45 45 45 42 45 45 48 48 52 48 48 55 55 52 52 55 55 58 65 52 48 58 61 58 55 48 52 48 52
26 26 48 45 45 48 55 55 55 42 52 48 39 35 39 42 39 39 39 39 45 45 48 48 58 55 55 55 52 48 52 52 48 48 55 48 48 48 42 52 45 42 45 32
32 32 32 32 39 42 45 45 48 45 39 39 39 35 35 29 32 32 32 35 35 39 39 45 48 48 48 55 52 42 42 42 42 42 42 45 39 35 35 32 32 32 35 35
29 26 32 35 39 45 45 32 39 39 35 32 35 32 32 29 29 32 32 32 32 35 32 32 35 35 32 39 48 52 42 42 39 39 39 42 39 32 29 29 29 26 29 26
23 32 32 35 35 32 32 29 29 32 29 29 29 29 26 19 23 29 26 26 26 26 26 26 26 35 29 35 39 45 35 35 35 35 32 29 26 26 16 10 10 6 10 13
29 26 29 32 29 23 19 16 23 19 23 23 23 19 19 19 19 23 23 23 26 26 23 23 23 23 29 39 35 42 42 35 32 32 32 29 32 32 19 16 3 3 0 0
29 29 23 16 16 13 13 10 13 16 16 13 16 16 13 16 19 23 23 23 23 16 16 19 19 19 23 32 39 35 32 29 26 35 29 29 29 32 29 26 23 19 3 0
26 19 19 19 13 13 13 13 16 13 13 13 13 13 13 16 16 16 23 23 16 13 13 13 13 16 26 26 29 32 29 26 26 26 26 19 26 26 23 23 23 23 19 6
16 13 13 16 10 10 6 10 10 10 13 13 10 10 13 13 13 19 19 23 19 16 16 16 19 23 19 23 26 29 26 26 23 23 19 19 19 16 19 23 19 26 23 13
16 10 3 6 10 10 10 10 6 6 6 6 3 6 6 10 10 10 10 16 13 16 19 16 23 23 19 23 23 23 23 23 10 16 16 16 13 13 13 13 10 10 10 13
10 6 3 6 6 6 6 6 6 6 10 3 3 3 6 10 10 10 10 13 16 19 19 16 16 19 16 16 23 26 19 19 19 13 13 13 13 16 13 13 10 10 13 6
3 0 0 3 6 3 3 6 6 6 6 6 6 3 3 3 6 6 6 10 10 13 10 13 6 13 13 10 6 19 16 13 10 10 13 10 10 10 6 10 6 6 6 3
0 0 0 0 3 3 3 3 3 0 0 3 3 3 6 6 6 6 6 6 3 6 10 6 10 6 6 6 3 6 6 3 6 10 10 13 10 10 10 10 10 6 10 13
0 0 0 6 6 6 6 6 6 0 0 0 3 6 6 6 3 3 6 0 3 6 3 0 6 6 6 3 3 3 6 3 3 3 6 6 3 6 6 6 13 13 10 6
0 0 3 6 6 6 6 6 3 3 3 6 6 6 6 3 0 0 3 6 3 3 3 0 0 0 0 0 0 6 6 6 3 0 0 0 3 6 10 10 13 13 13 10
3 3 3 3 6 3 0 0 0 0 0 3 3 3 3 3 3 3 3 3 3 0 0 0 0 0 0 0 0 3 3 3 0 0 0 0 3 6 6 10 16 13 16 10
3 0 0 0 0 0 0 0 0 0 0 3 3 3 3 6 6 3 3 0 0 0 0 0 0 0 0 0 3 3 3 3 3 3 0 6 6 10 10 16 16 13 10 10
0 0 3 3 3 0 6 3 6 6 3 3 3 3 3 6 3 3 3 0 0 0 3 0 0 0 0 0 3 6 6 6 0 0 3 6 6 6 6 6 6 6 13 10
0 3 6 3 3 6 0 0 0 0 3 3 3 3 3 6 3 6 3 3 0 0 3 3 3 0 0 0 0 3 3 3 3 6 6 6 6 3 3 3 3 6 10 10
0 3 10 6 0 0 3 3 0 0 3 3 3 3 3 3 3 3 3 6 3 0 0 0 0 0 0 0 0 0 3 3 6 6 6 6 0 3 0 0 3 3 0 0

GEFSNGP_con_cape1000_246.txt.gz
Probability
0 0 0 0 0 0 0 0 0 3 6 10 6 10 13 10 13 19 23 19 13 23 16 16 26 35 39 45 48 52 45 45 52 52 48 45 42 42 45 45 42 39 35 39
0 0 0 0 0 0 3 3 6 6 6 6 10 16 10 16 29 29 23 23 29 16 16 19 23 35 35 32 39 42 45 45 45 45 48 45 42 42 42 39 39 35 35 35
0 0 3 3 3 6 6 6 10 10 6 13 16 19 19 29 35 32 26 26 23 26 26 32 29 35 42 35 42 42 42 42 42 42 42 39 39 39 35 35 39 39 32 32
0 3 3 0 0 3 6 13 6 6 13 26 26 23 29 29 29 32 32 29 32 32 29 29 23 29 35 35 45 45 42 42 42 48 42 39 39 32 29 35 35 32 32 32
3 3 0 0 3 10 10 13 13 16 19 23 29 29 32 35 26 26 26 32 32 35 35 32 35 35 32 39 39 39 35 35 39 45 45 39 42 39 32 32 32 26 26 29
0 0 0 0 3 6 3 16 19 19 23 26 26 35 39 39 35 26 23 26 29 32 32 32 35 32 26 26 32 32 32 35 35 39 39 32 32 32 26 32 26 29 19 19
0 0 0 0 6 3 3 16 23 19 23 23 23 29 29 26 29 23 26 26 32 35 32 32 35 32 29 29 32 29 29 29 29 32 35 32 32 32 29 26 26 19 19 23
0 0 0 3 6 6 10 10 13 16 19 19 13 16 19 23 26 26 26 26 32 32 32 32 32 32 32 32 26 26 29 29 32 29 35 26 23 26 23 26 26 26 26 23
0 3 3 6 13 19 13 13 19 19 19 16 19 16 16 16 19 26 26 29 29 26 26 29 35 32 32 26 26 26 29 26 29 29 29 26 23 23 19 19 29 26 26 23
10 10 6 19 19 19 16 19 19 19 19 16 19 16 13 10 13 10 16 26 19 23 23 23 19 23 29 32 29 23 29 29 26 29 23 19 23 23 19 19 19 19 23 19
10 3 6 6 16 16 16 16 19 16 16 13 13 13 16 16 19 16 19 23 16 23 19 23 10 10 13 16 19 23 19 23 23 23 23 16 19 16 16 13 13 16 16 16
10 10 6 6 6 10 10 13 19 16 13 10 10 6 6 10 10 10 10 16 10 13 13 16 10 10 10 13 13 16 19 16 16 10 16 19 16 13 10 6 6 6 6 6
3 6 0 0 3 6 6 10 13 13 6 6 6 6 6 6 6 10 6 6 6 6 10 13 13 10 10 10 10 10 13 13 13 10 10 10 13 16 13 10 3 0 0 0
3 0 0 0 6 10 10 13 13 6 3 3 3 6 6 6 6 10 6 6 6 6 6 6 6 6 10 13 13 10 10 13 10 6 10 10 10 13 10 10 13 6 3 0
0 0 0 3 6 6 6 10 0 3 6 3 0 3 6 6 6 3 6 6 6 3 3 3 3 3 6 6 13 10 13 10 13 6 6 6 13 13 13 13 13 13 6 3
0 0 3 3 3 3 0 3 6 3 3 3 3 6 3 0 0 0 0 0 0 0 3 3 3 3 3 6 6 3 3 3 6 6 6 6 6 10 10 10 10 10 6 6
0 0 3 3 6 0 0 3 0 0 3 3 3 3 3 0 0 0 0 0 0 0 0 0 0 3 3 0 0 3 3 0 0 0 3 3 6 6 6 6 6 10 13 10
0 0 0 0 0 3 3 0 0 0 0 3 3 3 3 3 0 3 0 3 0 0 3 3 3 3 3 0 0 0 0 0 0 0 0 0 0 6 6 3 3 3 3 3
0 0 0 0 0 3 0 0 0 0 0 3 3 3 3 3 0 0 0 0 0 0 0 0 0 3 0 0 0 0 0 0 0 0 0 0 0 3 3 0 0 0 3 3
0 0 0 0 0 3 0 0 0 0 0 3 3 3 3 3 3 0 0 0 0 0 0 0 0 0 0 0 0 0 0 0 0 0 0 0 0 0 0 0 0 0 0 0
0 0 0 0 0 3 0 0 0 0 0 0 3 3 3 0 0 0 0 0 0 0 0 0 0 0 0 0 0 0 0 0 0 3 3 0 0 0 0 0 0 0 0 0
0 0 0 0 0 0 0 0 0 0 0 0 0 3 3 3 0 0 0 0 0 0 0 0 0 0 0 0 0 0 0 0 0 3 3 3 3 0 0 0 0 0 0 0
0 0 0 0 0 0 0 0 0 0 0 0 0 0 3 0 0 0 0 0 0 0 0 0 0 0 0 0 0 0 0 0 0 0 0 3 3 0 0 0 0 0 0 0
0 0 0 0 0 0 0 0 0 0 0 0 0 0 0 0 0 0 0 0 0 0 0 0 0 0 0 0 0 0 0 0 0 0 0 0 0 0 0 0 0 0 0 0
0 0 0 0 0 0 0 0 0 0 0 0 0 0 0 0 0 0 0 0 0 0 0 0 0 0 0 0 0 0 0 0 0 0 0 0 0 3 0 0 0 0 0 0
0 0 0 0 0 0 0 0 0 0 0 0 0 0 0 0 0 0 0 0 0 0 0 0 0 0 0 0 0 0 0 0 0 0 0 0 0 0 0 0 0 0 0 0
0 0 0 0 0 0 0 0 0 0 0 0 0 0 0 0 0 0 0 0 0 0 0 0 0 0 0 0 0 0 0 0 0 0 0 0 0 0 0 0 0 0 0 0

GEFSNGP_con_cape1000_252.txt.gz
Probability
0 0 0 0 0 0 0 0 0 0 0 3 6 6 16 13 13 13 10 10 6 10 13 6 6 13 16 29 32 35 39 32 35 35 35 35 32 29 29 29 26 26 19 19
0 0 0 0 0 0 0 0 0 0 3 13 13 13 13 13 13 13 16 19 10 10 16 13 13 19 23 35 42 35 29 29 32 29 35 35 35 29 32 29 29 26 26 23
0 0 0 0 0 3 10 6 6 6 10 6 16 6 13 13 13 16 19 19 23 16 13 16 16 16 23 32 29 32 32 32 32 35 35 32 29 32 35 32 32 29 32 29
0 0 0 0 0 3 6 6 0 3 6 13 10 10 10 13 19 23 19 19 13 19 16 16 16 16 16 26 26 29 29 29 32 35 39 39 32 32 32 29 29 29 29 26
0 0 0 0 0 0 3 10 6 16 16 13 10 16 16 23 19 16 16 16 19 23 19 13 16 16 16 19 19 23 23 26 32 35 35 32 26 26 26 26 26 26 19 23
0 0 0 0 0 0 0 3 16 16 19 16 6 10 13 13 10 13 13 10 10 10 13 10 16 13 19 23 26 32 29 29 29 29 32 29 26 23 19 16 19 19 16 16
0 0 0 0 0 0 0 0 16 16 16 10 10 3 10 13 13 13 13 10 6 6 10 10 6 13 16 13 16 19 19 19 19 23 26 26 26 23 19 16 13 13 10 13
0 0 0 0 3 0 0 6 19 19 13 10 10 10 10 16 13 13 10 10 3 6 6 6 6 10 13 13 16 19 19 19 19 23 23 23 19 16 13 13 10 10 13 13
0 0 0 0 3 0 6 13 19 16 16 16 13 13 13 13 16 13 13 13 10 13 13 13 10 3 10 13 13 16 16 16 16 19 16 16 16 13 10 13 13 13 16 13
0 3 3 3 3 6 13 13 10 16 16 16 13 16 10 10 10 13 13 13 10 10 13 13 10 13 13 10 13 16 16 16 13 13 13 13 16 13 10 10 13 16 13 16
6 3 3 10 6 10 13 13 10 10 10 13 6 6 6 6 3 3 6 6 6 6 6 10 10 10 10 16 10 13 13 10 13 16 16 16 10 6 10 13 13 16 16 13
10 0 3 6 3 13 16 13 10 6 6 6 6 3 3 3 3 3 0 0 0 3 3 6 6 3 10 10 13 13 10 10 10 10 13 13 10 3 3 3 3 3 3 3
0 0 0 3 0 3 10 3 3 3 6 3 3 3 0 3 3 0 0 0 0 0 3 10 10 10 10 6 6 3 6 6 6 6 6 3 6 6 6 3 3 0 0 0
0 0 3 3 0 3 3 3 0 3 3 3 3 3 3 3 0 0 0 0 0 3 3 3 3 3 3 6 6 3 3 3 3 6 3 3 3 6 6 6 6 3 3 0
0 0 0 0 0 3 3 3 0 0 3 3 0 3 3 0 0 0 0 0 0 0 0 3 3 3 3 3 6 6 3 3 0 3 3 3 3 3 6 6 6 6 3 3
0 0 0 0 0 3 0 0 0 0 0 0 0 3 0 0 0 0 0 0 0 0 0 0 3 0 0 3 3 3 0 0 0 0 0 0 3 3 3 6 6 0 0 3
0 0 0 0 0 0 0 0 0 0 0 0 0 0 0 0 0 0 0 0 0 0 0 0 0 0 0 0 0 0 0 0 0 0 0 0 0 0 0 0 0 3 3 3
0 0 0 0 0 0 0 0 0 0 0 0 0 0 0 0 0 0 0 0 0 0 0 0 0 0 0 0 0 0 0 0 0 0 0 0 0 0 0 0 0 0 0 3
0 0 0 0 0 0 0 0 0 0 0 0 0 0 0 0 0 0 0 0 0 0 0 0 0 0 0 0 0 0 0 0 0 0 0 0 0 0 0 0 0 0 0 0
0 0 0 0 0 0 0 0 0 0 0 0 0 0 0 0 0 0 0 0 0 0 0 0 0 0 0 0 0 0 0 0 0 0 0 0 0 0 0 0 0 0 0 0
0 0 0 0 0 0 0 0 0 0 0 0 0 0 0 0 0 0 0 0 0 0 0 0 0 0 0 0 0 0 0 0 0 0 0 0 0 0 0 0 0 0 0 0
0 0 0 0 0 0 0 0 0 0 0 0 0 0 0 0 0 0 0 0 0 0 0 0 0 0 0 0 0 0 0 0 0 0 0 0 0 0 0 0 0 0 0 0
0 0 0 0 0 0 0 0 0 0 0 0 0 0 0 0 0 0 0 0 0 0 0 0 0 0 0 0 0 0 0 0 0 0 0 0 0 0 0 0 0 0 0 0
0 0 0 0 0 0 0 0 0 0 0 0 0 0 0 0 0 0 0 0 0 0 0 0 0 0 0 0 0 0 0 0 0 0 0 0 0 0 0 0 0 0 0 0
0 0 0 0 0 0 0 0 0 0 0 0 0 0 0 0 0 0 0 0 0 0 0 0 0 0 0 0 0 0 0 0 0 0 0 0 0 0 0 0 0 0 0 0
0 0 0 0 0 0 0 0 0 0 0 0 0 0 0 0 0 0 0 0 0 0 0 0 0 0 0 0 0 0 0 0 0 0 0 0 0 0 0 0 0 0 0 0
0 0 0 0 0 0 0 0 0 0 0 0 0 0 0 0 0 0 0 0 0 0 0 0 0 0 0 0 0 0 0 0 0 0 0 0 0 0 0 0 0 0 0 0

GEFSNGP_con_cape1000_258.txt.gz
Probability
0 0 0 0 0 0 0 0 0 0 0 10 26 29 32 39 39 45 55 55 58 58 52 52 58 61 65 68 65 61 65 65 65 65 65 61 58 58 52 52 45 45 42 39
0 0 3 0 0 0 0 0 0 0 0 16 23 29 39 45 48 48 52 55 58 55 55 55 58 61 61 61 61 65 61 61 58 52 52 55 55 52 52 48 48 42 42 42
0 0 0 0 0 0 0 0 0 0 19 32 32 39 39 48 48 48 52 55 55 55 55 52 55 58 58 61 58 58 55 58 55 52 48 48 48 48 48 48 45 45 45 45
0 0 0 3 3 3 3 3 6 10 29 35 32 39 39 52 61 61 61 52 52 52 52 48 52 52 55 58 55 52 48 52 52 48 48 45 48 48 48 48 45 45 45 45
0 0 3 3 3 3 3 3 10 23 35 35 35 45 45 52 61 58 58 58 52 52 52 48 52 52 55 55 58 52 48 48 48 52 48 48 45 48 48 45 45 42 45 48
0 0 0 6 6 6 6 16 19 29 32 35 39 39 45 45 52 48 52 55 58 52 55 48 48 42 48 48 52 48 45 45 45 48 48 48 48 48 45 45 45 42 42 42
0 0 3 3 13 10 10 19 26 32 32 35 42 42 45 39 42 45 48 45 48 42 42 45 42 52 48 42 42 39 45 45 48 45 48 45 45 45 45 45 42 42 42 42
0 0 3 13 16 16 35 42 39 39 35 39 42 39 39 39 42 45 39 32 29 35 35 32 35 42 42 35 39 39 39 39 42 35 39 42 45 45 45 45 48 45 39 35
13 10 32 26 39 42 45 39 42 39 39 42 35 32 32 35 39 32 29 32 26 23 29 29 29 32 32 32 32 29 32 35 32 29 32 32 32 35 39 45 39 35 35 35
23 19 29 32 39 32 32 35 32 35 39 39 32 26 29 32 32 26 23 23 23 23 23 23 26 23 23 26 26 29 29 32 32 32 29 29 32 29 26 29 32 29 26 29
23 32 32 35 32 35 39 32 32 39 32 35 29 32 29 26 32 23 23 19 16 19 13 16 16 19 16 19 19 29 32 32 32 26 29 32 32 26 26 32 23 29 29 23
13 29 32 32 23 23 29 29 29 32 32 35 32 29 29 26 26 19 16 16 16 13 13 13 19 16 16 16 16 19 23 26 26 26 29 32 29 19 13 16 3 6 13 13
19 23 29 26 29 29 26 32 29 32 32 32 26 26 26 23 16 10 10 13 13 13 10 10 13 13 13 13 16 19 23 23 23 23 23 19 26 23 19 10 3 3 0 3
19 23 29 32 29 26 26 16 19 23 29 29 29 23 19 13 10 10 10 13 10 10 10 10 10 10 10 16 16 23 23 23 23 23 23 19 16 16 16 13 13 10 3 0
19 16 23 26 26 23 16 13 19 16 19 19 19 16 16 13 6 3 3 3 10 10 6 6 6 6 10 13 16 23 23 19 19 19 19 16 19 19 13 6 6 10 10 0
10 10 13 23 23 19 19 19 16 19 13 16 10 10 10 6 6 0 3 3 6 6 6 6 3 6 6 10 13 13 19 10 19 19 19 19 13 13 10 10 10 6 6 3
16 13 16 19 19 16 19 19 13 6 3 10 10 10 10 6 3 3 3 3 6 10 10 10 10 10 6 6 10 10 10 6 3 10 13 13 10 10 10 10 6 6 3 3
13 16 16 16 16 10 10 3 3 3 6 10 10 13 13 6 6 6 3 3 3 3 6 6 6 6 6 6 6 3 3 0 0 0 0 0 0 3 3 3 3 3 3 3
10 10 13 13 10 10 6 3 0 3 3 3 3 6 6 6 6 3 3 3 6 0 0 3 0 3 6 6 0 10 0 0 0 0 0 0 0 0 0 0 0 0 0 0
10 10 10 6 6 6 3 0 3 3 3 3 3 3 3 3 0 0 3 3 3 0 3 3 6 3 3 3 0 3 3 3 3 0 0 0 0 0 0 0 0 0 0 0
13 10 6 3 3 0 0 0 3 3 3 6 6 3 3 0 0 0 0 0 0 3 3 0 3 3 3 0 0 0 0 3 3 3 3 0 0 0 0 0 0 0 0 0
10 6 6 3 3 0 0 0 3 3 3 6 6 3 0 0 0 0 0 0 0 0 0 0 0 0 0 0 0 0 0 3 3 3 0 0 0 0 0 0 0 0 0 0
10 6 6 6 3 0 0 0 0 3 6 6 3 3 0 0 0 0 0 0 0 0 0 0 0 0 0 0 0 0 0 0 0 0 3 0 0 0 0 0 0 0 0 0
13 10 6 3 3 0 0 0 0 3 6 3 3 3 0 0 0 0 0 0 0 0 0 0 0 0 0 0 0 0 0 0 0 0 0 0 0 0 0 0 0 0 0 0
10 6 6 3 0 0 0 0 0 6 3 3 3 3 0 0 0 0 0 0 0 0 0 0 0 0 0 0 0 0 0 0 0 0 0 0 0 0 0 0 0 0 0 0
0 3 3 6 0 0 0 3 6 6 3 3 0 0 0 0 0 0 0 0 0 0 0 0 0 0 0 0 0 0 0 0 0 0 0 0 0 0 0 0 0 0 0 0
0 3 3 0 3 3 3 3 3 6 3 0 0 0 0 0 0 0 0 0 0 0 0 0 0 3 3 0 0 0 3 0 0 0 0 0 0 0 0 0 0 0 0 0

GEFSNGP_con_cape1000_264.txt.gz
Probability
0 0 0 0 0 0 6 0 3 10 19 23 26 19 35 39 52 52 48 42 61 61 65 65 68 58 55 52 55 55 65 68 68 65 65 58 58 58 55 58 55 58 52 48
0 0 0 0 0 3 3 3 3 13 16 23 29 32 48 52 48 52 48 42 58 68 71 68 61 61 58 58 58 61 65 65 68 61 58 55 55 55 58 58 58 55 52 52
0 0 0 3 3 6 3 3 6 13 35 32 29 35 52 52 55 52 52 48 65 65 65 61 58 61 65 58 52 55 58 58 61 61 61 61 58 58 58 58 52 52 52 55
0 3 0 0 0 0 6 6 6 16 26 35 39 39 55 58 58 61 58 52 61 58 55 58 55 55 52 48 52 58 55 55 55 61 61 61 61 58 58 58 58 58 58 55
3 0 3 0 0 0 6 10 13 16 23 35 35 35 42 42 55 61 61 65 65 52 48 45 45 45 48 45 45 48 58 61 58 61 58 58 58 58 58 58 58 58 58 58
0 0 0 6 0 0 0 10 10 13 29 35 39 45 45 48 48 61 55 61 55 45 48 48 52 48 52 48 48 55 55 58 52 58 58 58 61 61 58 58 58 58 58 58
0 0 3 0 0 0 10 19 13 13 35 35 45 42 45 52 45 48 55 52 45 45 48 58 48 52 48 45 45 48 52 52 52 55 55 55 58 58 58 55 55 55 55 55
6 3 6 3 10 23 39 32 32 32 39 35 45 45 42 42 39 39 45 45 39 45 48 45 42 45 45 45 45 45 45 45 42 48 45 45 55 61 55 55 52 48 48 45
16 16 26 13 29 23 26 29 35 39 35 45 48 45 42 39 35 39 42 39 35 35 45 48 42 42 42 42 42 42 42 39 39 42 45 48 48 48 52 52 42 42 39 39
23 26 23 19 19 23 26 29 29 35 39 39 45 42 39 42 45 45 42 39 26 35 39 39 42 39 42 39 39 39 39 39 45 32 35 45 48 26 26 23 29 35 35 35
26 23 23 23 29 26 26 29 29 35 32 35 35 35 42 42 32 35 32 26 29 35 35 35 35 32 32 32 35 35 32 26 35 26 26 39 29 23 16 19 19 23 26 26
29 32 29 26 26 19 23 29 29 26 26 32 29 26 32 32 29 32 26 26 29 29 29 26 23 26 23 26 29 29 26 16 19 19 23 16 10 10 6 10 6 6 10 10
23 19 23 26 23 23 19 19 23 26 23 26 29 26 29 29 32 35 26 26 26 23 19 23 26 26 26 23 23 23 19 26 23 19 16 13 13 13 13 10 3 0 0 0
23 23 26 29 26 26 26 26 23 19 29 29 26 26 26 29 32 29 26 19 19 16 19 23 23 19 19 13 19 13 10 6 10 10 10 6 10 10 10 13 10 10 0 0
23 19 26 29 32 32 32 29 29 29 32 29 26 29 29 32 29 23 23 13 16 16 16 19 19 19 19 10 10 6 6 10 10 10 13 10 6 3 6 10 10 6 6 0
23 19 19 23 26 26 26 32 32 32 29 29 26 32 35 35 26 26 23 16 19 13 19 23 23 19 13 13 13 13 13 6 10 10 13 10 10 6 10 16 10 10 6 10
19 19 23 23 23 23 19 19 23 26 26 32 29 32 32 26 26 23 16 13 19 19 23 19 16 13 10 10 16 10 10 6 6 10 10 10 10 13 13 6 3 3 3 0
10 16 19 16 16 16 19 19 23 23 23 29 26 23 23 16 19 19 19 16 10 10 16 13 10 10 6 6 10 13 6 3 3 6 6 3 3 6 6 3 3 0 0 0
16 16 16 13 13 16 19 19 23 19 26 23 23 19 16 13 13 16 13 10 10 10 13 6 0 3 6 6 6 10 10 10 3 6 6 0 6 6 6 3 0 0 0 0
6 6 6 10 13 19 19 23 26 19 19 16 16 16 13 6 13 10 10 10 6 6 10 3 3 3 3 3 0 3 6 10 10 10 10 10 6 3 0 0 0 0 0 0
6 6 10 13 16 19 23 19 19 19 13 13 13 13 13 16 6 6 6 3 6 0 0 0 3 3 3 3 0 3 3 6 10 10 10 10 6 0 0 0 0 0 0 0
13 13 13 16 13 19 19 19 16 13 13 10 10 10 13 13 6 6 3 3 0 0 0 0 0 0 0 0 0 0 0 3 6 6 3 3 3 0 0 0 0 0 0 0
16 16 16 16 16 16 13 6 6 13 6 6 6 6 6 10 13 10 3 0 0 0 0 0 0 0 0 0 0 0 0 3 3 0 0 0 0 0 0 0 0 0 0 0
23 19 19 16 13 13 13 10 10 6 6 10 6 6 6 6 6 0 0 0 0 0 0 0 0 0 0 0 0 0 0 0 0 0 0 0 3 0 0 0 0 0 0 0
16 16 13 13 10 13 16 13 3 3 10 6 6 10 6 6 6 3 0 0 0 0 0 0 0 0 0 0 0 0 3 3 0 0 0 0 0 0 0 0 0 0 0 0
23 16 13 19 19 13 6 6 10 3 6 6 10 10 6 10 6 6 6 0 0 0 0 0 3 3 3 3 3 3 3 0 0 0 0 0 0 0 0 0 0 0 0 0
19 16 16 13 10 3 3 3 6 3 3 10 10 13 3 6 6 3 0 0 0 0 0 0 0 3 3 3 3 0 0 0 0 0 0 0 0 0 0 0 0 0 0 0